Regional Weather Roundup
Issued by NWS

Home | Current Version | Previous Version | Graphics & Text | Print | Product List | Glossary On
Versions: 1 2 3 4 5 6 7 8 9 10 11 12 13 14 15 16 17 18 19 20 21 22 23 24 25 26 27 28 29 30 31 32 33 34 35 36 37 38 39 40 41 42 43 44 45 46 47 48 49 50
000
ASUS43 KLOT 281808
RWRIL

ILLINOIS REGIONAL WEATHER ROUNDUP
NATIONAL WEATHER SERVICE CHICAGO/ROMEOVILLE IL
100 PM CDT TUE MAR 28 2017

NOTE: "FAIR" INDICATES FEW OR NO CLOUDS BELOW 12,000 FEET WITH NO
SIGNIFICANT WEATHER AND/OR OBSTRUCTIONS TO VISIBILITY.

* THESE STATIONS ARE NOT UNDER NWS QUALITY CONTROL. THEY ALSO MAY NOT
  REPORT WEATHER SUCH AS PRECIPITATION OR FOG.

ILZ001-002-007-009-015-016-024-281900-
NORTHWEST ILLINOIS

CITY           SKY/WX    TMP DP  RH WIND       PRES   REMARKS
MOLINE         CLOUDY    50  46  86 E5        30.14R
6HR MIN TEMP:  47; 6HR MAX TEMP:  50; 6HR PCP:  0.01;

STERLING*      CLOUDY    49  41  74 N8        30.15S
SAVANNA*       CLOUDY    48  40  75 NE6       30.15S
$$

ILZ003-004-008-010-011-017-018-281900-
NORTH CENTRAL ILLINOIS

CITY           SKY/WX    TMP DP  RH WIND       PRES   REMARKS
ROCKFORD       CLOUDY    49  38  65 NE8       30.16S
6HR MIN TEMP:  42; 6HR MAX TEMP:  49;

FREEPORT*      CLOUDY    45  38  77 N5        30.17S
ROCHELLE*      CLOUDY    45  39  80 NE8       30.14F
DE KALB*       CLOUDY    45  39  79 N7        30.14S
PERU*          CLOUDY    48  41  76 NE9       30.13S
$$

ILZ005-006-012>014-019>023-281900-
NORTHEAST ILLINOIS

CITY           SKY/WX    TMP DP  RH WIND       PRES   REMARKS
CHICAGO-OHARE  PTSUNNY   48  37  65 N13       30.12S
6HR MIN TEMP:  41; 6HR MAX TEMP:  48;

CHICAGO-MIDWAY CLOUDY    45  37  73 N13G20    30.13S
6HR MIN TEMP:  40; 6HR MAX TEMP:  46;

AURORA         CLOUDY    47  38  71 N7        30.13S
6HR MIN TEMP:  42; 6HR MAX TEMP:  47;

LANSING*       CLOUDY    43  40  87 N8        30.13S
JOLIET*        CLOUDY    48  40  74 NE9       30.13S
WAUKEGAN       CLOUDY    42  38  85 NE14      30.14S
6HR MIN TEMP:  39; 6HR MAX TEMP:  43;

DUPAGE AIRPORT CLOUDY    46  40  79 N9        30.12S
6HR MIN TEMP:  41; 6HR MAX TEMP:  46;

KANKAKEE*      CLOUDY    48  40  73 NE9       30.12S
WHEELING       CLOUDY    45  38  76 NE12      30.15R
6HR MIN TEMP:  40; 6HR MAX TEMP:  45;

MORRIS*        CLOUDY    46  39  76 NE5       30.12R
ROMEOVILLE*    CLOUDY    45  41  86 NE10      30.12S
NORTHERLY ISL    N/A     41  37  86 N10         N/A
$$

LMZ740>746-281900-
SOUTHERN LAKE MICHIGAN

STATION/POSITION SKY/WX   TEMP    WIND        PRES    VSBY  WAVE
                          AIR SEA DIR/SP/G                  HT/PER
                          (F)     (DEG/KT/KT) (MB)    (MI)  (FT/S)
HARRISON CRIB              39     350/ 14/ 14   N/A
BURNHAM HARBOR             41     350/  8/ 14   N/A
CALUMET HARBOR             40     330/ 12/ 17 1020.1R
BURNS HARBOR               38     350/ 10/ 12 1020.7S
MICHIGAN CITY              39     350/ 12/ 13   N/A
$$

ILZ025>027-034>036-040-047-049-050-058-095>099-281900-
WEST-CENTRAL ILLINOIS

CITY           SKY/WX    TMP DP  RH WIND       PRES   REMARKS
QUINCY         CLOUDY    53  48  83 NE6       30.11R
GALESBURG*     CLOUDY    50  45  84 NE7       30.12S
MACOMB*        CLOUDY    50  47  90 E7        30.14S FOG
JACKSONVILLE*  CLOUDY    53  48  83 NE5       30.11S
PITTSFIELD*    CLOUDY    54  50  85 NE3       30.12S
$$

ILZ028>032-037-038-041>044-048-051>054-059>061-281900-
CENTRAL ILLINOIS

CITY           SKY/WX    TMP DP  RH WIND       PRES   REMARKS
PONTIAC        CLOUDY    51  45  81 N8        30.12S
BLOOMINGTON    CLOUDY    50  43  77 N10       30.12S
DECATUR        CLOUDY    55  44  66 NE10      30.10S
PEORIA         CLOUDY    51  44  77 NE8       30.13R
6HR MIN TEMP:  47; 6HR MAX TEMP:  51;

LACON*         CLOUDY    50  43  76 CALM      30.13R
LINCOLN*       CLOUDY    53  46  78 NE6       30.12S
SPRINGFIELD    CLOUDY    54  46  74 E7        30.12R
6HR MIN TEMP:  50; 6HR MAX TEMP:  55;

TAYLORVILLE    CLOUDY    55  48  76 NE10      30.10S
$$

ILZ033-039-045-046-055>057-062-063-281900-
EAST-CENTRAL ILLINOIS

CITY           SKY/WX    TMP DP  RH WIND       PRES   REMARKS
CHAMPAIGN      CLOUDY    54  42  64 NE12      30.10R
RANTOUL*       CLOUDY    51  44  74 NE10      30.10F
MATTOON        PTSUNNY   57  48  72 NE13      30.07S
PARIS*         MOSUNNY   56  48  74 NE9       30.09R
$$

ILZ079-100>102-281900-
SOUTHWEST ILLINOIS

CITY           SKY/WX    TMP DP  RH WIND       PRES   REMARKS
ALTON          CLOUDY    55  46  71 NE8       30.10R
BELLEVILLE     CLOUDY    58  49  73 N8        30.09R
CAHOKIA*       CLOUDY    57  47  69 N3        30.09F
SPARTA*        CLOUDY    55  49  81 NE5       30.10S
$$

ILZ064>066-069>071-074>076-080>082-084>086-088>090-092>094-281900-
SOUTH-CENTRAL ILLINOIS

CITY           SKY/WX    TMP DP  RH WIND       PRES   REMARKS
CARBONDALE     CLOUDY    56  50  80 NW6       30.08F
6HR MIN TEMP:  53; 6HR MAX TEMP:  57;

CAIRO*         CLOUDY    58  52  81 N6        30.07S
EFFINGHAM*     CLOUDY    58  49  74 N6        30.09S
MARION         CLOUDY    59  54  82 N6        30.09F
MT. VERNON     CLOUDY    57  48  72 W3        30.09R
CENTRALIA*     CLOUDY    56  49  77 N5        30.08S
SALEM*         CLOUDY    55  47  76 N6        30.09R
METROPOLIS*    CLOUDY    60  53  78 N8        30.07F
$$

ILZ067-068-072-073-078-083-087-091-281900-
SOUTHEAST ILLINOIS

CITY           SKY/WX    TMP DP  RH WIND       PRES   REMARKS
LAWRENCEVILLE  PTSUNNY   60  51  72 NE5       30.06S
FLORA*         CLOUDY    58  49  71 N5        30.07F
FAIRFIELD*     PTSUNNY   59  50  72 N5        30.06S
HARRISBURG*    CLOUDY    57  51  82 NW5       30.08S
ROBINSON*      MOSUNNY   58  50  76 N6        30.07F
CARMI*         CLOUDY    60  52  75 N6        30.06R
$$

ABBREVIATIONS USED IN REMARKS
   TC - TEMPERATURE IN CELSIUS
  WCI - WIND CHILL INDEX
   HX - HEAT INDEX
  VSB - VISIBILITY
$$





USA.gov is the U.S. government's official web portal to all federal, state and local government web resources and services.